Retour au catalogue

SL-8 R/B

ActifLEO
NORAD 6683·ROCKET BODY·🇷🇺 Russia

Lancé Jun 8, 1973 depuis Plesetsk Cosmodrome

Loading…

Prochains Passages (prochaines 24 heures)

TLE

FraisSource: Space-Track

Époque: Sep 14, 2026, 14:57 UTC

1 06683U 73037J   26257.62357955 -.00000026  00000-0 -97130-4 0  9991
2 06683  74.0225 327.7164 0070257  84.8206  83.6063 12.32104238396026

Suivez SL-8 R/B en temps réel avec AllMySat

Download on the App Store